Tracking 30995 objects as of 5-Jul-2025
HD Live streaming from Space Station
objects crossing your sky now

IRIDIUM 33 DEB

Track IRIDIUM 33 DEB now!
10-day predictions


NORAD ID: 34366
Int'l Code: 1997-051FJ
Perigee: 711.6 km
Apogee: 740.4 km
Inclination: 86.4 °
Period: 99.2 minutes
Semi major axis: 7097 km
RCS: 0.0424 m2 (small)
Launch date: September 14, 1997
Source: United States (US)
Launch site: TYURATAM MISSILE AND SPACE COMPLEX (TTMTR)

Note: This is SATELLITE DEBRIS
Your satellite tracking list
Your tracking list is empty




NASA's NSSDC Master Catalog

Two Line Element Set (TLE):
1 34366U 97051FJ  25186.29278962  .00003948  00000-0  96872-3 0  9990
2 34366  86.3716 118.9695 0020242 328.5556 194.7539 14.52079410858527
Source of the keplerian elements: AFSPC